[[{"header":{"parameterUnit":"m.s-1","parameterCategory":1,"la1":30.2991,"la2":30.254,"lo1":-89.0895,"lo2":-89.0444,"dy":0.0017,"dx":0.0017,"nx":28,"ny":28,"refTime":"2024-12-10T03:00:00:Z","depth":0,"parameterNumber":2,"parameterNumberName":"U-component_of_WINDS"},"data":[0,0,0,0,0,0,0,0,0,0,0,0,0,0,0,0,0,0,0,0,0,0,0,0,0,0,0,0,0,0,0,0,0,0,0,0,0,0,0,0,0,0,0,0,0,0,0,0,0,0,0,0,0,0,0,0,0,0,-1.0858,-1.0857,0,-1.0768,-1.0767,-1.0766,-1.0721,-1.0721,-1.0721,-1.0721,-1.0627,-1.0624,-1.0622,0,0,0,0,0,0,0,0,0,0,0,0,0,-1.0985,-1.0983,-1.0858,-1.0857,-1.0856,-1.0769,-1.0767,-1.0766,-1.0721,-1.0721,-1.0721,-1.0721,-1.0628,-1.0625,-1.0622,0,0,0,0,0,0,0,0,0,0,0,0,0,-1.0916,-1.0982,-1.0858,-1.0823,-1.0818,-1.0769,-1.0767,-1.0766,-1.0721,-1.0721,-1.0721,-1.0721,-1.0629,-1.0625,-1.0621,-1.0599,0,0,-1.061,-1.0608,0,0,0,0,0,0,0,0,-1.092,-1.0912,-1.0829,-1.0825,-1.082,-1.0756,-1.0778,-1.071,-1.0721,-1.0758,-1.0721,-1.0721,-1.067,-1.0663,-1.0646,-1.0595,-1.0591,-1.061,-1.0607,-1.0606,-1.0605,0,0,0,0,0,0,0,-1.0925,-1.0915,-1.0822,-1.0828,-1.0822,-1.081,-1.08,-1.0765,-1.0715,-1.0755,-1.0751,-1.0741,-1.0667,-1.065,-1.0643,-1.059,-1.061,-1.0607,-1.0604,-1.0603,-1.0513,-1.0513,0,0,0,0,0,0,-1.0936,-1.0919,-1.0825,-1.082,-1.0871,-1.0808,-1.0797,-1.0777,-1.0715,-1.0706,-1.0741,-1.074,-1.0656,-1.0648,-1.064,-1.0608,-1.0606,-1.0602,-1.06,-1.0514,-1.0513,-1.0513,0,0,0,0,0,0,-1.0939,-1.0928,-1.0829,-1.0869,-1.0855,-1.0805,-1.0783,-1.0775,-1.0757,-1.0705,-1.0696,-1.0733,-1.0655,-1.0645,-1.0609,-1.0604,-1.0601,-1.0597,-1.0514,-1.0514,-1.0513,-1.0546,0,0,0,0,0,0,-1.0943,-1.0929,-1.0922,-1.0869,-1.0853,-1.0801,-1.0783,-1.0773,-1.0751,-1.0748,-1.0695,-1.0686,-1.0655,-1.0615,-1.0606,-1.0599,-1.0594,-1.0514,-1.0514,-1.0513,-1.0546,-1.0547,-1.0549,0,0,0,0,0,-1.0947,-1.0935,-1.0922,-1.091,-1.0843,-1.0801,-1.0792,-1.0757,-1.0751,-1.0742,-1.0708,-1.0687,-1.0607,-1.0612,-1.0601,-1.0593,-1.0514,-1.0514,-1.0513,-1.0545,-1.0547,-1.0549,0,0,0,0,0,0,-1.0988,-1.0927,-1.0912,-1.0882,-1.0847,-1.0794,-1.0781,-1.0761,-1.0727,-1.0725,-1.0682,-1.0671,-1.0638,-1.0612,-1.0619,-1.0567,-1.0558,-1.0556,-1.0586,-1.0587,-1.0589,-1.0596,-1.0591,0,0,0,0,0,-1.0993,-1.0966,-1.0914,-1.0892,-1.0875,-1.0831,-1.0812,-1.0788,-1.075,-1.0735,-1.0699,-1.0662,-1.0628,-1.0606,-1.0572,-1.0542,-1.0528,-1.0531,-1.0532,-1.0534,-1.0532,-1.0511,-1.0511,-1.0512,-1.0512,-1.0512,0,0,-1.1004,-1.0968,-1.0953,-1.0899,-1.0869,-1.084,-1.0819,-1.079,-1.0767,-1.073,-1.0694,-1.0666,-1.0622,-1.0588,-1.0571,-1.0565,-1.0529,-1.0534,-1.0535,-1.0532,-1.0511,-1.0511,-1.0511,-1.0512,-1.0512,-1.0512,0,0,-1.1009,-1.0979,-1.0957,-1.0927,-1.0882,-1.0853,-1.0848,-1.0797,-1.0777,-1.074,-1.0711,-1.0683,-1.0626,-1.0594,-1.0571,-1.0562,-1.0541,-1.0552,-1.0561,-1.0541,-1.0541,-1.0541,-1.0536,-1.0535,-1.055,-1.055,-1.0551,0,-1.1028,-1.0984,-1.0948,-1.0919,-1.0896,-1.0861,-1.0837,-1.0809,-1.0756,-1.0739,-1.0734,-1.066,-1.0628,-1.0585,-1.0582,-1.0566,-1.0556,-1.0558,-1.0544,-1.0544,-1.0543,-1.0537,-1.0536,-1.0552,-1.0552,-1.0552,-1.0552,0,-1.1008,-1.0978,-1.0965,-1.0914,-1.0889,-1.0863,-1.0821,-1.08,-1.0778,-1.0749,-1.071,-1.067,-1.0626,-1.0615,-1.0593,-1.0568,-1.0566,-1.0553,-1.0542,-1.0545,-1.0539,-1.0537,-1.0554,-1.0554,-1.0553,-1.0553,0,0,-1.1037,-1.0965,-1.096,-1.0936,-1.0883,-1.0858,-1.083,-1.0787,-1.0769,-1.0733,-1.0706,-1.0658,-1.0645,-1.0619,-1.0593,-1.0576,-1.0568,-1.0564,-1.0563,-1.0565,-1.0536,-1.0546,-1.0544,-1.0554,-1.0554,-1.0554,-1.054,0,-1.1032,-1.0981,-1.0946,-1.0907,-1.0878,-1.0843,-1.0818,-1.0782,-1.0753,-1.0723,-1.0691,-1.0657,-1.0643,-1.0627,-1.0608,-1.0573,-1.0562,-1.0574,-1.0528,-1.0527,-1.0539,-1.0541,-1.0552,-1.0541,-1.0537,-1.0537,-1.0537,0,-1.1021,-1.0986,-1.0944,-1.0892,-1.0879,-1.0857,-1.0814,-1.0786,-1.0743,-1.0724,-1.0693,-1.0667,-1.0633,-1.0626,-1.0578,-1.0587,-1.0566,-1.0546,-1.0545,-1.0538,-1.0531,-1.0534,-1.0536,-1.0534,-1.0533,-1.0533,-1.0534,0,-1.1044,-1.0985,-1.0952,-1.0933,-1.0872,-1.0857,-1.0831,-1.0789,-1.0765,-1.0727,-1.071,-1.0669,-1.0647,-1.0615,-1.0577,-1.0575,-1.0532,-1.0522,-1.0513,-1.0514,-1.0505,-1.0506,-1.0503,-1.0494,-1.0494,-1.0494,-1.0494,0,-1.1042,-1.1018,-1.0961,-1.0941,-1.0911,-1.0871,-1.0843,-1.0814,-1.0776,-1.0748,-1.0716,-1.069,-1.0642,-1.061,-1.058,-1.0544,-1.0534,-1.0516,-1.0508,-1.0518,-1.052,-1.0503,-1.0502,-1.0493,-1.0493,-1.0493,-1.0493,0,-1.1062,-1.1024,-1.0985,-1.0931,-1.0916,-1.0897,-1.085,-1.0827,-1.0797,-1.0762,-1.0751,-1.0702,-1.0663,-1.0622,-1.0568,-1.0548,-1.0512,-1.0502,-1.0527,-1.0522,-1.0514,-1.0515,-1.05,-1.0495,-1.049,-1.049,-1.049,0,-1.1063,-1.1043,-1.0987,-1.0966,-1.094,-1.0908,-1.0883,-1.0842,-1.0817,-1.0766,-1.075,-1.0708,-1.0672,-1.061,-1.0569,-1.0527,-1.0515,-1.0512,-1.0508,-1.0518,-1.0513,-1.0514,-1.0511,-1.0513,-1.0514,-1.0514,-1.0514,0,-1.1069,-1.105,-1.1016,-1.0975,-1.0946,-1.0912,-1.0876,-1.086,-1.0812,-1.0785,-1.0745,-1.0717,-1.0661,-1.0619,-1.0572,-1.0544,-1.052,-1.0515,-1.0511,-1.052,-1.0535,-1.0525,-1.0529,-1.0516,-1.0516,-1.0516,-1.0515,-1.0515,-1.1078,-1.1058,-1.1014,-1.0977,-1.0945,-1.0912,-1.0888,-1.0854,-1.082,-1.0772,-1.075,-1.0708,-1.0664,-1.0598,-1.057,-1.0536,-1.053,-1.0523,-1.0521,-1.052,-1.0522,-1.0541,-1.0528,-1.0527,-1.0527,-1.0527,-1.0527,0,-1.108,-1.105,-1.1016,-1.0966,-1.0936,-1.0918,-1.0876,-1.0852,-1.0816,-1.0778,-1.0743,-1.0695,-1.0653,-1.0609,-1.0564,-1.0545,-1.0533,-1.0535,-1.0535,-1.0529,-1.0531,-1.0539,-1.0545,-1.0545,-1.0545,-1.0545,-1.0545,-1.0545,-1.1077,-1.1042,-1.1018,-1.0966,-1.0935,-1.0895,-1.0873,-1.0841,-1.081,-1.0758,-1.0723,-1.0695,-1.0653,-1.0605,-1.0566,-1.0553,-1.0538,-1.0542,-1.0527,-1.053,-1.0529,-1.0527,-1.0534,-1.054,-1.054,-1.0527,-1.0527,-1.0527]},{"header":{"parameterUnit":"m.s-1","parameterCategory":1,"la1":30.2991,"la2":30.254,"lo1":-89.0895,"lo2":-89.0444,"dy":0.0017,"dx":0.0017,"nx":28,"ny":28,"refTime":"2024-12-10T03:00:00:Z","depth":0,"parameterNumber":3,"parameterNumberName":"V-component_of_WINDS"},"data":[0,0,0,0,0,0,0,0,0,0,0,0,0,0,0,0,0,0,0,0,0,0,0,0,0,0,0,0,0,0,0,0,0,0,0,0,0,0,0,0,0,0,0,0,0,0,0,0,0,0,0,0,0,0,0,0,0,0,2.0489,2.049,0,2.0593,2.0595,2.0596,2.0622,2.0622,2.0621,2.0621,2.0728,2.0731,2.0735,0,0,0,0,0,0,0,0,0,0,0,0,0,2.0314,2.0317,2.0489,2.0491,2.0492,2.0593,2.0595,2.0596,2.0623,2.0622,2.0621,2.062,2.0727,2.0731,2.0735,0,0,0,0,0,0,0,0,0,0,0,0,0,2.0401,2.0318,2.0489,2.0517,2.0521,2.0593,2.0595,2.0596,2.0623,2.0622,2.0621,2.062,2.0726,2.0731,2.0736,2.0787,0,0,2.0752,2.0754,0,0,0,0,0,0,0,0,2.0396,2.0407,2.0512,2.0515,2.052,2.0594,2.0572,2.0661,2.0623,2.0584,2.0621,2.0619,2.0684,2.0693,2.0715,2.0793,2.0797,2.0752,2.0755,2.0758,2.0759,0,0,0,0,0,0,0,2.039,2.0403,2.053,2.0513,2.0518,2.0525,2.0536,2.0589,2.0638,2.0587,2.059,2.0601,2.0686,2.0709,2.0717,2.0799,2.0752,2.0757,2.076,2.0762,2.0925,2.0926,0,0,0,0,0,0,2.0379,2.0398,2.0527,2.0534,2.0454,2.0529,2.0541,2.0571,2.0638,2.0647,2.0602,2.0602,2.0701,2.0711,2.0721,2.0787,2.0758,2.0762,2.0765,2.0923,2.0925,2.0926,0,0,0,0,0,0,2.0375,2.039,2.0523,2.0466,2.0484,2.0533,2.0566,2.0574,2.0597,2.0649,2.0658,2.0617,2.0701,2.0714,2.0771,2.0791,2.0765,2.0769,2.0922,2.0924,2.0925,2.0919,0,0,0,0,0,0,2.037,2.0389,2.0409,2.0467,2.0487,2.0571,2.0567,2.0576,2.0606,2.0607,2.0665,2.0674,2.0701,2.0763,2.0776,2.0798,2.0774,2.092,2.0923,2.0925,2.0918,2.0921,2.0923,0,0,0,0,0,2.0364,2.0403,2.041,2.0425,2.0513,2.0572,2.0584,2.0614,2.0607,2.0628,2.0661,2.0672,2.0786,2.0769,2.0783,2.0807,2.0919,2.0922,2.0925,2.0917,2.092,2.0923,0,0,0,0,0,0,2.0348,2.0411,2.042,2.0479,2.052,2.0577,2.0604,2.0616,2.066,2.0659,2.0694,2.0707,2.0762,2.079,2.0769,2.0861,2.0853,2.0858,2.0842,2.0845,2.0847,2.0841,2.0778,0,0,0,0,0,2.0351,2.0393,2.0447,2.0494,2.0514,2.0555,2.0582,2.0601,2.0645,2.0663,2.07,2.0743,2.0788,2.0818,2.0862,2.092,2.0934,2.0944,2.0947,2.0948,2.0954,2.0988,2.0993,2.0935,2.0935,2.0935,0,0,2.0359,2.0398,2.0423,2.0492,2.0526,2.0569,2.057,2.0616,2.0649,2.067,2.0727,2.0755,2.0805,2.0863,2.089,2.0888,2.0973,2.0952,2.0953,2.0958,2.0991,2.0997,2.1002,2.0937,2.0936,2.0936,0,0,2.0396,2.0429,2.0473,2.0506,2.0557,2.0584,2.0594,2.0649,2.0669,2.0726,2.0743,2.0781,2.0859,2.0894,2.0922,2.0969,2.0981,2.0982,2.0997,2.1029,2.1034,2.1038,2.1057,2.1063,2.0987,2.0987,2.0987,0,2.0399,2.0466,2.0494,2.0539,2.0569,2.0589,2.0634,2.0664,2.0728,2.0748,2.0743,2.084,2.0875,2.0942,2.0954,2.0974,2.0988,2.0978,2.1031,2.1035,2.104,2.1058,2.1065,2.0987,2.0987,2.0987,2.0987,0,2.0468,2.0513,2.0542,2.0603,2.0635,2.068,2.0715,2.0744,2.076,2.0787,2.0845,2.0886,2.094,2.0956,2.0972,2.1026,2.1023,2.1023,2.1017,2.1045,2.1063,2.107,2.0987,2.0987,2.0987,2.0987,0,0,2.0502,2.0575,2.0586,2.0613,2.067,2.0706,2.075,2.0802,2.0828,2.0869,2.0909,2.0972,2.0974,2.1005,2.1024,2.1052,2.1089,2.105,2.1052,2.1058,2.1152,2.1153,2.1161,2.1095,2.1097,2.1098,2.1149,0,2.0548,2.063,2.0656,2.0724,2.0767,2.0784,2.0824,2.0862,2.0888,2.0928,2.0956,2.1002,2.0999,2.1018,2.1046,2.1079,2.1109,2.1075,2.1134,2.1136,2.1125,2.117,2.1172,2.1218,2.1156,2.1157,2.1158,0,2.0614,2.0656,2.0729,2.078,2.0798,2.0833,2.0883,2.092,2.0964,2.0981,2.1015,2.1031,2.1079,2.1066,2.1133,2.1109,2.1134,2.1153,2.1156,2.1165,2.1151,2.1184,2.1234,2.1242,2.1169,2.1168,2.1167,0,2.0634,2.0709,2.0763,2.0785,2.0845,2.0869,2.0895,2.0938,2.0967,2.1009,2.1029,2.1076,2.1103,2.1139,2.1168,2.1156,2.1233,2.1222,2.1249,2.1249,2.1268,2.1267,2.1326,2.1279,2.1279,2.1278,2.1278,0,2.0685,2.073,2.0773,2.0806,2.0856,2.0884,2.0933,2.0959,2.0997,2.1036,2.1052,2.1089,2.1123,2.1163,2.1185,2.1238,2.1249,2.1265,2.1271,2.1266,2.1264,2.1286,2.1284,2.128,2.128,2.1279,2.1279,0,2.0719,2.0749,2.0809,2.0859,2.0873,2.0908,2.0951,2.0984,2.1009,2.1058,2.1071,2.111,2.1159,2.119,2.1251,2.1266,2.1325,2.1328,2.1311,2.1314,2.1341,2.1339,2.1418,2.1431,2.1372,2.1372,2.1373,0,2.0751,2.0786,2.084,2.0867,2.0893,2.0936,2.0965,2.0993,2.1023,2.1075,2.1102,2.1151,2.1192,2.1268,2.1303,2.135,2.1357,2.1381,2.1364,2.1358,2.1361,2.136,2.1364,2.1385,2.1385,2.1386,2.1386,0,2.0807,2.0819,2.0861,2.0908,2.0943,2.0981,2.102,2.1041,2.1075,2.1108,2.1157,2.1189,2.1251,2.13,2.135,2.1377,2.1388,2.139,2.14,2.1397,2.1386,2.1395,2.1322,2.139,2.1389,2.1389,2.1389,2.1389,2.0843,2.0875,2.0917,2.0963,2.0994,2.103,2.1063,2.1091,2.1133,2.1186,2.1199,2.1251,2.1293,2.1361,2.1388,2.1429,2.1426,2.1439,2.1443,2.1447,2.1449,2.1376,2.1438,2.1438,2.1438,2.1437,2.1437,0,2.0902,2.0929,2.0971,2.1024,2.106,2.1064,2.1106,2.1137,2.1182,2.122,2.1259,2.1316,2.1363,2.14,2.1448,2.1474,2.148,2.1486,2.1487,2.1493,2.1447,2.1436,2.148,2.148,2.148,2.148,2.148,2.148,2.0937,2.0991,2.1008,2.1078,2.1105,2.1156,2.118,2.1212,2.1243,2.1305,2.1344,2.1367,2.1404,2.1455,2.1499,2.1508,2.1527,2.1532,2.1543,2.15,2.1496,2.1492,2.1481,2.1535,2.1535,2.1586,2.1586,2.1587]}]]